Temperature
18 18 18 18 18 18 18 17 17 17 17 17 18 18 18 18 18 17 17 17 17 17 17 17 17 17 17 17 16 16 16 16 16 16 16 16 16 16 16 16 16 16 16
18 18 18 18 17 17 17 17 17 17 17 17 17 18 18 18 17 17 17 17 17 17 17 17 17 17 17 17 16 16 16 16 16 16 16 16 16 16 16 16 16 16 16
18 18 18 18 17 17 17 17 17 17 17 17 17 17 17 17 17 17 17 17 17 17 17 17 17 17 17 17 17 16 16 16 16 16 16 16 16 16 16 16 16 16 16
18 18 17 18 17 17 17 17 17 17 17 17 17 17 17 17 17 17 17 17 17 17 17 17 16 16 16 16 16 16 16 16 16 16 16 16 16 16 16 16 16 16 16
18 18 17 17 17 17 17 17 17 17 17 17 17 17 17 17 17 17 17 17 17 16 16 16 16 16 16 16 16 16 16 16 16 16 16 16 16 16 16 16 16 16 16
17 17 17 17 17 17 17 17 17 17 17 17 17 17 17 17 17 17 17 17 17 16 16 16 16 16 16 16 16 16 16 16 16 16 16 16 16 16 16 16 16 15 15
17 17 17 17 17 17 17 17 17 17 17 17 17 17 17 17 17 17 17 17 17 16 16 16 16 16 16 16 16 16 16 16 16 16 16 16 16 16 16 16 15 15 15
17 17 17 17 17 17 17 16 17 17 17 17 17 17 17 17 17 17 17 17 17 17 16 16 16 16 16 16 16 16 16 16 16 16 16 16 16 15 15 15 15 15 15
17 17 17 17 17 17 17 17 17 17 17 17 17 17 18 18 17 17 17 17 17 17 16 16 16 16 16 16 16 16 16 16 15 15 15 15 15 15 15 15 15 15 15
17 17 17 17 17 17 17 17 16 17 17 17 17 17 17 17 17 17 17 17 17 17 17 16 16 16 16 16 16 16 16 15 15 15 15 15 15 15 15 15 15 15 15
17 17 17 17 17 16 16 16 16 16 17 17 17 17 18 18 18 18 17 17 17 17 17 17 16 16 16 16 16 16 16 15 15 15 15 15 15 15 15 15 15 15 15
17 17 16 17 17 16 16 16 16 16 16 16 17 17 17 18 18 18 18 17 17 17 17 17 16 16 16 16 15 15 15 15 15 15 15 15 15 15 15 15 15 15 15
17 17 17 17 16 16 16 16 16 16 16 16 17 17 17 17 18 18 18 18 18 17 17 17 17 16 16 16 16 15 15 15 15 15 15 15 15 15 15 15 15 15 15
17 17 17 17 16 16 16 16 16 16 16 16 16 16 17 17 17 17 17 18 18 18 17 17 17 17 16 16 16 16 15 15 15 15 15 15 15 15 15 15 15 15 15
17 17 17 17 16 16 16 16 16 15 15 16 16 16 16 17 17 17 17 17 17 17 17 17 17 17 17 16 16 16 16 15 15 15 15 15 15 15 15 15 15 15 15
17 17 17 17 17 16 16 16 16 15 15 16 16 16 16 16 16 16 17 17 17 17 17 17 17 17 17 16 16 16 16 15 15 15 15 15 15 15 15 15 15 15 15
17 17 17 17 16 16 16 16 16 16 16 16 16 16 16 16 16 16 16 16 16 16 17 17 17 17 17 16 16 16 15 15 15 15 15 15 15 15 15 15 15 15 15
17 17 17 17 16 16 16 16 16 16 16 16 16 16 15 16 16 16 16 16 16 16 16 16 16 16 16 16 16 16 16 15 15 15 15 15 15 15 15 15 15 15 15
17 17 17 17 16 16 16 16 16 16 16 15 16 15 15 15 15 15 15 16 16 16 16 16 16 16 16 16 15 15 15 15 15 15 15 15 15 15 15 15 15 15 15
17 17 17 17 16 16 16 16 16 16 16 16 15 15 15 15 15 15 15 15 15 15 15 15 15 15 16 15 15 15 15 15 15 15 15 15 15 15 15 15 15 15 15
17 17 17 16 16 16 16 16 16 16 16 16 16 15 15 15 15 15 15 15 15 15 15 15 15 15 15 15 15 15 15 15 15 15 15 15 15 15 15 15 15 15 15
17 17 17 17 16 16 16 16 16 16 16 16 15 15 15 15 15 15 15 15 14 14 14 14 14 14 15 15 15 15 14 14 14 15 14 15 15 14 15 14 14 15 15
17 17 16 16 16 16 16 16 16 16 16 15 15 15 15 15 15 14 14 14 14 14 14 14 14 14 14 14 14 14 14 14 14 14 14 14 14 14 14 14 14 14 14
16 16 16 16 16 16 16 16 16 15 15 15 15 14 14 14 14 14 14 14 14 14 14 13 13 14 13 13 13 13 13 13 13 14 13 13 14 14 14 14 14 14 14
16 16 16 16 15 15 15 15 15 15 15 14 14 14 14 14 14 14 13 13 13 13 13 13 13 13 13 13 13 13 12 12 12 13 13 13 13 13 13 13 13 13 13
16 16 15 15 15 15 15 15 15 14 14 14 14 13 13 13 13 13 13 13 13 13 12 12 12 12 12 12 12 12 12 12 11 11 12 12 12 12 12 12 12 12 13
Wind_Speed
4 5 4 2 2 4 3 1 3 3 2 1 2 3 4 6 11 13 13 14 14 13 12 11 10 9 9 8 8 8 8 8 8 9 9 9 8 8 7 7 7 7 7
5 4 3 1 2 3 4 2 3 2 0 2 3 4 4 5 9 12 13 13 13 13 12 11 10 9 9 8 8 8 8 8 9 9 9 9 8 8 7 7 7 7 6
7 4 3 2 3 5 3 1 2 2 2 2 3 3 3 4 6 8 12 12 12 12 11 11 10 10 9 9 9 9 9 9 10 10 10 9 9 9 8 7 7 7 7
9 4 3 3 3 4 3 2 1 2 1 2 3 2 3 3 4 6 8 11 12 11 12 11 10 10 9 9 9 9 9 9 10 10 10 10 9 9 9 9 8 8 8
9 5 3 3 3 2 1 1 3 2 1 1 2 2 2 3 3 4 5 8 10 12 12 12 12 11 10 9 9 9 10 10 10 11 10 11 10 10 11 11 10 10 9
8 5 5 4 2 2 2 3 3 3 1 1 2 3 1 3 2 3 3 5 8 10 13 13 12 11 11 10 10 9 10 10 10 10 10 10 11 11 11 12 12 11 11
7 3 4 4 1 2 3 3 2 3 2 1 1 2 2 3 3 3 1 2 4 7 10 13 12 11 11 11 10 10 9 9 10 10 11 11 11 11 12 12 12 12 12
8 6 4 4 3 3 2 2 1 1 3 3 1 2 2 2 1 4 4 3 4 5 6 9 9 10 10 11 10 10 9 9 9 9 10 11 11 11 12 12 13 13 13
7 4 5 3 3 4 4 2 2 2 1 2 2 1 0 2 3 2 4 3 3 2 2 6 9 9 9 10 11 11 10 8 8 8 8 8 10 10 11 12 12 12 13
6 6 5 4 2 1 5 4 4 2 2 2 2 1 0 1 1 2 2 3 4 3 3 3 5 7 9 10 11 11 11 9 8 7 7 7 8 9 10 11 11 11 12
5 6 6 4 3 2 4 2 3 1 2 3 1 2 2 1 2 2 3 4 4 4 4 3 3 6 9 11 11 12 12 11 9 8 7 7 8 8 9 10 10 10 11
5 6 6 5 4 3 4 3 2 2 2 2 3 2 1 2 2 1 3 4 4 4 5 4 4 5 9 11 11 14 14 12 10 9 8 7 7 8 8 9 9 10 10
6 6 6 5 4 3 4 3 3 2 2 1 2 3 3 2 1 0 0 1 2 3 4 4 4 6 8 10 12 15 14 14 12 11 10 9 8 8 8 8 9 9 9
6 8 7 6 5 6 6 4 3 4 3 2 3 2 3 3 2 1 1 1 1 2 4 5 4 6 7 11 15 16 14 16 14 13 12 11 10 10 9 9 9 9 9
7 10 8 8 6 6 5 5 4 4 4 4 4 4 3 3 2 2 2 2 1 2 2 3 3 5 8 10 16 15 13 17 17 16 15 14 13 13 12 12 12 11 11
5 9 8 8 8 7 6 5 5 4 4 4 3 3 3 3 2 2 2 2 2 2 2 1 3 4 5 8 15 14 12 16 20 19 18 18 17 16 16 16 15 15 14
6 7 8 8 8 8 7 6 6 6 6 6 5 4 4 4 3 3 2 2 3 3 3 3 2 3 4 3 6 10 10 12 15 21 22 22 21 20 20 19 18 17 17
6 7 8 8 8 8 7 7 8 7 7 7 6 6 6 5 4 3 3 3 3 2 2 3 2 1 3 5 6 6 8 11 13 18 24 25 25 24 23 21 21 20 20
6 7 8 8 8 7 8 8 7 7 6 6 6 6 5 5 5 4 4 4 3 4 3 3 4 3 3 4 5 6 7 6 11 13 19 24 25 25 25 24 23 23 22
6 7 8 8 7 7 6 7 6 6 5 5 5 5 5 5 5 5 5 4 4 5 4 3 4 4 3 4 3 4 5 5 7 9 10 13 19 24 26 26 25 24 24
8 7 6 6 5 5 5 5 5 7 5 5 4 4 5 5 5 5 5 3 4 4 4 4 5 4 4 3 3 3 4 4 5 5 4 5 7 9 14 20 24 25 25
6 6 6 5 5 6 6 6 5 5 4 5 5 4 5 5 5 6 6 5 3 4 4 4 4 4 4 3 3 3 3 4 5 3 3 5 4 5 7 12 17 22 25
6 5 5 4 4 3 3 5 5 3 3 4 4 4 5 4 4 4 5 6 6 8 7 4 5 5 5 4 3 4 4 5 6 5 5 7 6 6 7 13 16 19 21
5 4 5 5 4 2 3 4 4 4 3 3 2 2 2 2 2 1 3 4 5 6 7 7 7 7 6 4 4 5 6 6 7 6 6 7 7 7 8 8 12 15 18
4 3 3 3 3 2 3 3 3 3 3 3 2 1 1 1 1 2 2 3 4 4 6 8 9 10 11 10 7 4 5 6 7 7 5 6 6 6 5 5 9 12 14
4 3 3 2 3 3 4 4 2 1 1 2 1 2 3 2 1 2 2 3 4 5 5 6 6 9 10 11 12 8 7 7 7 6 4 3 4 4 5 5 4 6 9
Wind_Direction
133 122 118 127 147 134 156 197 80 71 59 109 83 72 61 83 113 124 139 148 147 149 152 153 155 157 157 160 162 163 168 165 160 161 160 157 155 156 155 152 150 148 146
125 124 131 136 114 95 67 44 94 94 19 77 75 65 55 73 106 124 141 152 157 159 162 164 167 169 169 171 173 177 179 178 175 173 173 172 173 174 171 169 167 165 163
131 136 140 169 119 116 125 125 116 139 198 147 120 114 92 76 104 123 141 152 161 168 170 173 175 177 178 181 186 189 191 188 186 186 186 186 188 188 187 185 183 181 179
145 156 148 132 142 154 155 136 192 176 121 116 131 131 117 120 135 145 150 157 162 167 174 176 176 180 185 189 194 197 198 194 194 197 197 197 198 199 199 198 197 197 195
153 159 128 121 177 153 154 166 113 61 81 108 146 143 161 154 156 168 152 157 159 160 168 175 179 183 189 192 195 199 202 200 200 203 205 206 207 209 210 209 209 209 208
161 161 133 146 200 140 99 62 82 71 35 213 216 143 164 149 178 143 164 159 164 172 168 168 177 187 193 193 195 198 203 205 206 207 209 211 212 214 216 218 218 217 218
160 169 128 150 200 113 122 148 137 157 213 193 136 146 173 172 147 132 169 149 162 159 159 167 175 180 186 198 200 201 205 208 210 211 214 215 216 217 219 222 223 223 224
159 170 135 168 141 120 125 124 103 258 216 177 210 187 171 160 167 177 163 175 160 166 171 173 167 171 182 179 194 197 203 209 210 212 217 220 222 222 223 224 226 227 227
173 163 152 164 156 170 156 180 194 233 268 185 207 277 233 163 161 166 181 161 142 150 173 161 171 177 179 173 177 190 197 203 209 214 220 222 223 226 225 224 226 229 232
172 165 161 147 181 160 144 196 186 232 252 254 196 171 196 95 123 154 196 163 167 173 176 178 169 175 172 165 174 180 189 196 204 213 220 222 222 223 223 224 226 231 235
174 178 166 158 175 169 150 136 128 244 260 273 276 197 191 174 244 189 178 178 187 179 176 178 172 176 171 168 166 175 182 187 192 202 213 219 220 222 225 227 233 237 240
180 181 169 160 179 171 142 142 150 205 301 342 344 328 194 196 231 221 180 186 188 183 174 171 174 175 182 176 178 176 182 188 194 201 208 212 218 223 226 229 234 237 240
179 180 173 168 181 157 156 167 179 219 212 274 306 309 329 314 302 328 198 218 178 168 172 178 186 181 187 162 162 172 182 190 199 206 213 217 222 225 227 230 233 236 240
176 169 166 171 180 175 180 170 192 204 195 213 252 294 325 319 331 322 306 308 246 209 194 196 179 179 181 162 168 175 185 194 201 207 213 219 224 227 230 234 237 238 241
172 166 171 175 182 181 180 165 217 204 166 200 234 223 250 282 287 315 327 331 308 284 243 203 175 179 171 161 170 187 191 199 204 210 216 221 226 230 235 239 243 246 248
168 164 177 179 182 182 185 186 211 196 189 212 239 244 226 272 278 260 286 302 303 291 286 242 206 185 174 180 181 196 203 203 209 215 220 224 228 232 236 241 244 247 250
167 175 183 183 187 188 189 197 222 196 197 213 225 219 222 260 299 307 264 249 257 259 268 278 250 168 160 170 170 212 219 210 215 221 224 227 229 232 236 240 244 246 248
183 186 191 192 196 195 192 196 218 215 202 209 219 221 215 224 223 263 291 291 275 264 261 278 284 229 204 198 189 213 232 233 231 228 225 227 230 233 236 240 244 246 248
191 196 197 197 201 197 194 203 211 225 218 215 216 217 219 227 224 229 233 267 286 277 238 252 263 252 238 224 203 221 244 253 260 249 229 227 230 233 237 240 243 246 247
189 199 197 199 201 201 198 204 206 215 222 224 225 222 223 222 221 231 241 244 265 283 286 271 273 267 255 241 217 225 251 246 253 263 247 233 231 235 238 240 242 245 247
197 193 191 193 198 201 206 206 211 216 214 221 227 228 229 224 224 222 237 236 247 250 262 261 262 267 263 262 243 239 259 269 258 255 257 252 234 235 242 244 245 248 247
197 191 193 191 196 213 210 195 202 226 210 214 226 231 236 227 223 222 231 239 238 250 258 268 271 271 274 275 272 266 269 280 278 271 270 271 259 246 242 244 244 242 242
193 190 190 187 195 212 184 173 195 228 233 224 226 233 248 243 205 214 228 238 246 246 236 249 267 277 292 302 305 294 284 279 276 288 294 278 270 265 261 264 254 246 244
186 189 188 189 180 187 161 169 192 212 240 244 232 229 231 277 293 250 237 237 241 245 236 234 242 252 263 279 283 281 279 279 269 265 260 268 271 267 270 272 269 256 248
178 176 167 169 168 164 140 152 177 203 212 238 245 247 227 193 348 323 270 272 271 266 256 248 244 251 255 258 258 273 275 275 276 272 257 256 267 273 274 277 279 273 262
149 148 122 111 110 100 98 100 135 206 230 240 186 118 76 88 62 1 303 286 280 287 294 286 265 263 256 253 243 233 248 260 271 277 274 279 283 296 287 277 280 293 286
Height
1554 1555 1556 1558 1559 1561 1562 1563 1564 1565 1566 1567 1568 1569 1570 1570 1570 1571 1572 1573 1574 1575 1577 1578 1579 1580 1582 1583 1585 1586 1588 1589 1590 1592 1593 1594 1595 1596 1597 1598 1599 1599 1600
1553 1554 1556 1557 1559 1560 1561 1563 1564 1565 1566 1567 1568 1569 1570 1570 1571 1571 1572 1573 1574 1575 1577 1578 1579 1580 1582 1583 1584 1586 1587 1589 1590 1591 1593 1594 1595 1596 1597 1598 1598 1599 1600
1552 1554 1556 1557 1558 1560 1561 1562 1563 1564 1566 1567 1568 1569 1570 1571 1571 1572 1573 1573 1574 1575 1576 1577 1578 1580 1581 1582 1584 1585 1587 1588 1589 1591 1592 1593 1594 1595 1596 1597 1598 1599 1600
1551 1553 1555 1556 1558 1559 1561 1562 1563 1564 1566 1567 1568 1569 1570 1571 1572 1572 1573 1573 1574 1575 1576 1577 1578 1579 1580 1582 1583 1584 1586 1587 1588 1590 1591 1592 1593 1594 1595 1596 1597 1598 1599
1551 1553 1554 1555 1557 1559 1560 1562 1563 1564 1565 1567 1568 1569 1569 1570 1571 1572 1573 1574 1574 1575 1575 1576 1577 1578 1580 1581 1582 1583 1584 1586 1587 1588 1589 1590 1592 1593 1594 1595 1596 1597 1598
1550 1552 1553 1555 1557 1558 1559 1560 1562 1563 1564 1566 1567 1568 1569 1570 1571 1572 1573 1573 1574 1575 1575 1576 1577 1578 1579 1580 1581 1582 1583 1584 1585 1586 1588 1589 1590 1591 1592 1593 1595 1595 1596
1549 1551 1553 1554 1556 1557 1558 1559 1562 1563 1564 1566 1567 1568 1569 1570 1571 1572 1572 1573 1574 1574 1575 1576 1576 1577 1578 1579 1580 1580 1581 1582 1583 1584 1585 1587 1588 1589 1590 1591 1592 1593 1594
1548 1551 1552 1554 1555 1556 1557 1559 1560 1562 1564 1565 1567 1568 1569 1570 1570 1571 1572 1573 1574 1574 1575 1575 1576 1576 1576 1577 1578 1579 1580 1580 1581 1582 1583 1584 1585 1586 1588 1589 1590 1591 1592
1547 1550 1551 1553 1554 1556 1556 1558 1559 1561 1563 1565 1566 1568 1568 1568 1569 1571 1571 1572 1573 1574 1574 1574 1575 1575 1575 1576 1576 1577 1578 1578 1579 1580 1581 1582 1583 1584 1585 1586 1587 1588 1589
1546 1548 1550 1551 1553 1555 1556 1557 1558 1560 1562 1564 1565 1566 1567 1567 1569 1570 1571 1571 1572 1572 1573 1574 1574 1574 1574 1574 1575 1576 1576 1576 1577 1578 1578 1579 1580 1581 1582 1583 1584 1585 1586
1545 1547 1549 1550 1552 1553 1555 1556 1557 1559 1561 1563 1564 1565 1566 1567 1568 1569 1570 1571 1571 1571 1572 1572 1573 1573 1573 1573 1574 1574 1575 1575 1575 1576 1576 1577 1577 1578 1579 1579 1580 1581 1582
1543 1545 1547 1548 1550 1552 1553 1555 1556 1558 1559 1561 1562 1564 1565 1566 1567 1568 1568 1569 1569 1570 1571 1571 1572 1572 1572 1572 1572 1572 1573 1573 1574 1574 1574 1575 1575 1575 1576 1576 1577 1578 1578
1541 1543 1545 1546 1548 1550 1552 1553 1555 1557 1558 1559 1561 1562 1563 1565 1566 1566 1567 1568 1568 1569 1569 1570 1570 1570 1571 1570 1571 1571 1571 1572 1572 1572 1572 1572 1573 1573 1573 1574 1574 1574 1575
1539 1541 1543 1545 1546 1548 1550 1552 1554 1555 1556 1558 1559 1560 1561 1563 1564 1565 1566 1567 1567 1568 1567 1568 1568 1568 1569 1569 1569 1569 1569 1569 1570 1570 1570 1570 1570 1571 1571 1571 1571 1571 1572
1537 1539 1541 1543 1545 1547 1549 1550 1552 1553 1555 1556 1557 1559 1560 1561 1562 1563 1564 1565 1566 1566 1566 1566 1566 1567 1567 1567 1567 1567 1567 1567 1567 1567 1568 1568 1568 1568 1568 1568 1568 1568 1568
1535 1537 1539 1541 1543 1545 1546 1548 1550 1551 1553 1554 1555 1557 1558 1559 1560 1561 1562 1563 1564 1564 1564 1564 1565 1565 1565 1565 1565 1565 1565 1565 1565 1565 1565 1565 1565 1565 1565 1565 1565 1565 1565
1532 1534 1537 1539 1541 1543 1544 1546 1548 1550 1551 1552 1553 1554 1555 1556 1557 1559 1560 1560 1561 1562 1562 1562 1563 1563 1563 1563 1563 1563 1562 1562 1562 1562 1562 1562 1562 1562 1561 1561 1561 1561 1561
1530 1532 1534 1536 1538 1541 1542 1544 1546 1547 1549 1550 1551 1552 1553 1554 1554 1555 1556 1557 1558 1559 1559 1559 1560 1560 1560 1560 1560 1559 1559 1559 1559 1559 1558 1558 1558 1558 1558 1558 1557 1557 1557
1526 1528 1530 1533 1536 1539 1540 1542 1543 1545 1546 1547 1548 1549 1550 1551 1551 1552 1553 1554 1555 1556 1556 1556 1556 1557 1556 1557 1556 1556 1556 1556 1556 1555 1555 1554 1554 1554 1554 1553 1553 1553 1552
1523 1525 1528 1531 1534 1536 1538 1539 1541 1542 1543 1545 1546 1546 1547 1547 1548 1549 1549 1550 1551 1552 1552 1552 1552 1553 1553 1553 1553 1552 1551 1551 1551 1551 1551 1550 1550 1549 1549 1549 1548 1548 1548
1522 1524 1526 1528 1530 1533 1534 1536 1538 1539 1540 1541 1542 1543 1543 1544 1544 1545 1546 1546 1547 1547 1548 1548 1548 1548 1549 1549 1548 1548 1547 1547 1547 1547 1546 1546 1545 1544 1544 1543 1543 1542 1542
1520 1522 1523 1525 1528 1529 1531 1533 1535 1536 1537 1537 1538 1539 1539 1540 1540 1541 1542 1542 1543 1543 1543 1543 1543 1544 1544 1544 1544 1544 1543 1542 1541 1542 1541 1540 1540 1538 1538 1537 1537 1536 1536
1518 1520 1521 1523 1525 1527 1529 1530 1531 1533 1533 1534 1534 1535 1535 1536 1536 1536 1537 1537 1538 1538 1538 1539 1538 1538 1539 1539 1539 1538 1538 1537 1536 1536 1536 1533 1533 1532 1532 1531 1531 1530 1530
1515 1517 1519 1521 1522 1524 1525 1526 1528 1529 1529 1530 1530 1531 1531 1531 1532 1532 1532 1532 1532 1532 1533 1533 1533 1533 1533 1534 1533 1533 1532 1531 1530 1530 1530 1528 1527 1526 1525 1525 1525 1524 1523
1512 1514 1516 1518 1519 1520 1522 1523 1524 1525 1526 1526 1527 1527 1527 1527 1527 1528 1528 1527 1527 1527 1527 1527 1527 1527 1527 1527 1527 1527 1525 1525 1523 1522 1523 1522 1520 1519 1518 1518 1518 1517 1516
1509 1512 1513 1514 1516 1517 1519 1520 1521 1522 1522 1523 1523 1523 1524 1524 1524 1523 1523 1523 1522 1522 1522 1522 1521 1521 1521 1521 1520 1520 1519 1518 1517 1516 1517 1516 1514 1513 1510 1510 1510 1510 1509